Beckley, WV

2:42 PM EDT on September 26, 2017 (GMT -0400)
Raleigh County Memorial

Weather History for KBKW - March, 2012

Change the Weather History Date:

Saturday, March 3, 2012

  Actual Average Record
Temperature  
Mean Temperature 45 °F 38 °F  
Max Temperature 53 °F 47 °F 73 °F (1974)
Min Temperature 36 °F 29 °F -5 °F (1980)
Degree Days  
Heating Degree Days 20 27  
Month to date heating degree days 53 81  
Since 1 July heating degree days 3446 4082  
Cooling Degree Days 0 0  
Month to date cooling degree days 0 0  
Year to date cooling degree days 0 0  
Moisture  
Dew Point 31 °F    
Average Humidity 63    
Maximum Humidity 96    
Minimum Humidity 29    
Precipitation  
Precipitation 0.20 in 0.11 in 1.84 in (1934)
Month to date precipitation 1.07 0.33  
Year to date precipitation 8.27 5.90  
Snow  
Snow 0.00 in - - ()
Month to date snowfall 0.0  
Since 1 September snowfall 29.9  
Snow Depth 0.00 in    
Sea Level Pressure  
Sea Level Pressure 29.72 in    
Wind  
Wind Speed 8 mph (WNW)    
Max Wind Speed 22 mph    
Max Gust Speed 29 mph    
Visibility 9 miles    
Events Rain    
T = Trace of Precipitation, MM = Missing Value Source: NWS Daily Summary

Daily Weather History Graph

Daily Weather History Graph

Search for Another Location

Airport or City:

Trip Planner

Search our weather history database for the weather conditions in past years. The results will help you decide how hot, cold, wet, or windy it might be!

Date:

Astronomy

Mar. 03, 2012 Rise Set
Actual Time 6:52 AM EST 6:20 PM EST
Civil Twilight 6:26 AM EST 6:46 PM EST
Nautical Twilight 5:55 AM EST 7:17 PM EST
Astronomical Twilight 5:25 AM EST 7:47 PM EST
Moon 1:33 PM EST (3/3) 3:24 AM EST (3/3)
Length of Visible Light 12h 20m
Length of Day
11h 28m
Waxing Gibbous, 75% of the Moon is Illuminated
Mar 3
Waxing Gibbous
Mar 8
Full
Mar 14
Last Quarter
Mar 22
New
Mar 30
First Quarter

Hourly Weather History & Observations

Time (EST) Temp. Windchill Dew Point Humidity Pressure Visibility Wind Dir Wind Speed Gust Speed Precip Events Conditions
12:36 AM 51.8 °F - 48.2 °F 88% 29.62 in 1.8 mi NNW 11.5 mph 16.1 mph 0.06 in Rain Light Rain
12:41 AM 51.8 °F - 48.2 °F 88% 29.63 in 1.2 mi NNW 3.5 mph 16.1 mph 0.07 in Rain Rain
12:46 AM 51.8 °F - 48.2 °F 88% 29.62 in 2.0 mi North 3.5 mph - 0.09 in Rain Rain
12:51 AM 51.1 °F - 50.0 °F 96% 29.62 in 3.0 mi Calm Calm - 0.10 in Rain Heavy Rain
1:16 AM 51.8 °F - 51.8 °F 100% 29.62 in 7.0 mi WNW 5.8 mph - 0.04 in Rain Light Rain
1:51 AM 52.0 °F - 48.9 °F 89% 29.61 in 10.0 mi NNW 9.2 mph - 0.06 in Rain Light Rain
2:51 AM 50.0 °F - 46.9 °F 89% 29.62 in 10.0 mi West 5.8 mph - 0.01 in   Overcast
2:58 AM 50.0 °F - 46.4 °F 87% 29.62 in 10.0 mi West 8.1 mph 18.4 mph N/A   Overcast
3:51 AM 46.9 °F - 37.9 °F 71% 29.67 in 10.0 mi WNW 11.5 mph 19.6 mph 0.00 in Rain Light Rain
4:51 AM 43.0 °F 38.8 °F 39.0 °F 86% 29.70 in 10.0 mi WNW 6.9 mph - 0.03 in   Overcast
5:03 AM 42.8 °F 39.3 °F 39.2 °F 87% 29.70 in 10.0 mi NW 5.8 mph - N/A   Overcast
5:51 AM 42.1 °F 37.1 °F 37.0 °F 82% 29.74 in 10.0 mi NW 8.1 mph - N/A   Overcast
6:28 AM 39.2 °F 32.5 °F 33.8 °F 81% 29.74 in 10.0 mi West 10.4 mph - N/A   Mostly Cloudy
6:51 AM 37.9 °F 31.5 °F 32.0 °F 79% 29.77 in 10.0 mi West 9.2 mph - N/A   Mostly Cloudy
7:02 AM 37.4 °F 31.4 °F 32.0 °F 81% 29.73 in 10.0 mi West 8.1 mph - N/A   Mostly Cloudy
7:25 AM 37.4 °F 31.4 °F 30.2 °F 75% 29.73 in 10.0 mi West 8.1 mph - N/A   Partly Cloudy
7:51 AM 37.0 °F 31.6 °F 30.9 °F 79% 29.76 in 10.0 mi West 6.9 mph - N/A   Scattered Clouds
8:51 AM 37.0 °F 28.9 °F 28.9 °F 73% 29.80 in 10.0 mi West 12.7 mph - N/A   Scattered Clouds
9:51 AM 37.9 °F 30.9 °F 30.0 °F 73% 29.81 in 10.0 mi WNW 10.4 mph - N/A   Partly Cloudy
10:51 AM 41.0 °F 34.7 °F 28.9 °F 62% 29.80 in 10.0 mi WSW 10.4 mph 17.3 mph N/A   Partly Cloudy
11:51 AM 43.0 °F 36.4 °F 26.1 °F 51% 29.76 in 10.0 mi WNW 12.7 mph - N/A   Clear
12:51 PM 45.0 °F 37.9 °F 21.9 °F 40% 29.75 in 10.0 mi WNW 16.1 mph 26.5 mph N/A   Clear
1:51 PM 46.9 °F - 21.9 °F 37% 29.72 in 10.0 mi West 11.5 mph - N/A   Clear
2:51 PM 48.0 °F - 17.1 °F 29% 29.72 in 10.0 mi WSW 15.0 mph 26.5 mph N/A   Clear
3:51 PM 46.9 °F - 18.0 °F 32% 29.70 in 10.0 mi West 10.4 mph 25.3 mph N/A   Clear
4:51 PM 46.9 °F - 18.0 °F 32% 29.73 in 10.0 mi West 10.4 mph - N/A   Clear
5:51 PM 45.0 °F 41.2 °F 15.1 °F 30% 29.75 in 10.0 mi Variable 6.9 mph - N/A   Clear
6:51 PM 42.1 °F 39.2 °F 14.0 °F 32% 29.78 in 10.0 mi WNW 4.6 mph - N/A   Clear
7:51 PM 39.9 °F 35.8 °F 12.0 °F 32% 29.80 in 10.0 mi West 5.8 mph - N/A   Clear
8:51 PM 39.9 °F 37.8 °F 12.0 °F 32% 29.79 in 10.0 mi WNW 3.5 mph - N/A   Clear
9:51 PM 39.0 °F 34.8 °F 17.1 °F 41% 29.81 in 10.0 mi WNW 5.8 mph - N/A   Clear
10:51 PM 37.9 °F 35.5 °F 19.0 °F 47% 29.80 in 10.0 mi North 3.5 mph - N/A   Clear
11:51 PM 37.0 °F 33.3 °F 19.9 °F 50% 29.81 in 10.0 mi WNW 4.6 mph - N/A   Clear